Index of /20260428/WXO-DD/model_rdps/10km/18/069
Name Last modified Size Description
Parent Directory -
20260428T18Z_MSC_RDPS_AbsoluteVorticity_IsbL-0250_RLatLon0.09_PT069H.grib2 2026-04-28 21:00 600K
20260428T18Z_MSC_RDPS_AbsoluteVorticity_IsbL-0500_RLatLon0.09_PT069H.grib2 2026-04-28 21:00 557K
20260428T18Z_MSC_RDPS_AbsoluteVorticity_IsbL-0700_RLatLon0.09_PT069H.grib2 2026-04-28 21:00 610K
20260428T18Z_MSC_RDPS_AbsoluteVorticity_IsbL-0850_RLatLon0.09_PT069H.grib2 2026-04-28 21:00 773K
20260428T18Z_MSC_RDPS_AirTemp_AGL-120m_RLatLon0.09_PT069H.grib2 2026-04-28 21:00 381K
20260428T18Z_MSC_RDPS_AirTemp_AGL-2m_RLatLon0.09_PT069H.grib2 2026-04-28 21:00 628K
20260428T18Z_MSC_RDPS_AirTemp_AGL-40m_RLatLon0.09_PT069H.grib2 2026-04-28 21:00 395K
20260428T18Z_MSC_RDPS_AirTemp_AGL-80m_RLatLon0.09_PT069H.grib2 2026-04-28 21:00 388K
20260428T18Z_MSC_RDPS_AirTemp_IsbL-0001_RLatLon0.09_PT069H.grib2 2026-04-28 21:00 317K
20260428T18Z_MSC_RDPS_AirTemp_IsbL-0005_RLatLon0.09_PT069H.grib2 2026-04-28 21:00 290K
20260428T18Z_MSC_RDPS_AirTemp_IsbL-0010_RLatLon0.09_PT069H.grib2 2026-04-28 21:00 299K
20260428T18Z_MSC_RDPS_AirTemp_IsbL-0020_RLatLon0.09_PT069H.grib2 2026-04-28 21:00 413K
20260428T18Z_MSC_RDPS_AirTemp_IsbL-0030_RLatLon0.09_PT069H.grib2 2026-04-28 21:00 337K
20260428T18Z_MSC_RDPS_AirTemp_IsbL-0050_RLatLon0.09_PT069H.grib2 2026-04-28 21:00 312K
20260428T18Z_MSC_RDPS_AirTemp_IsbL-0100_RLatLon0.09_PT069H.grib2 2026-04-28 21:00 419K
20260428T18Z_MSC_RDPS_AirTemp_IsbL-0150_RLatLon0.09_PT069H.grib2 2026-04-28 21:00 414K
20260428T18Z_MSC_RDPS_AirTemp_IsbL-0175_RLatLon0.09_PT069H.grib2 2026-04-28 21:00 407K
20260428T18Z_MSC_RDPS_AirTemp_IsbL-0200_RLatLon0.09_PT069H.grib2 2026-04-28 21:00 410K
20260428T18Z_MSC_RDPS_AirTemp_IsbL-0225_RLatLon0.09_PT069H.grib2 2026-04-28 21:00 409K
20260428T18Z_MSC_RDPS_AirTemp_IsbL-0250_RLatLon0.09_PT069H.grib2 2026-04-28 21:00 415K
20260428T18Z_MSC_RDPS_AirTemp_IsbL-0275_RLatLon0.09_PT069H.grib2 2026-04-28 21:00 395K
20260428T18Z_MSC_RDPS_AirTemp_IsbL-0300_RLatLon0.09_PT069H.grib2 2026-04-28 21:00 401K
20260428T18Z_MSC_RDPS_AirTemp_IsbL-0350_RLatLon0.09_PT069H.grib2 2026-04-28 21:00 416K
20260428T18Z_MSC_RDPS_AirTemp_IsbL-0400_RLatLon0.09_PT069H.grib2 2026-04-28 21:00 419K
20260428T18Z_MSC_RDPS_AirTemp_IsbL-0450_RLatLon0.09_PT069H.grib2 2026-04-28 21:00 391K
20260428T18Z_MSC_RDPS_AirTemp_IsbL-0500_RLatLon0.09_PT069H.grib2 2026-04-28 21:00 400K
20260428T18Z_MSC_RDPS_AirTemp_IsbL-0550_RLatLon0.09_PT069H.grib2 2026-04-28 21:00 418K
20260428T18Z_MSC_RDPS_AirTemp_IsbL-0600_RLatLon0.09_PT069H.grib2 2026-04-28 21:00 437K
20260428T18Z_MSC_RDPS_AirTemp_IsbL-0650_RLatLon0.09_PT069H.grib2 2026-04-28 21:00 350K
20260428T18Z_MSC_RDPS_AirTemp_IsbL-0700_RLatLon0.09_PT069H.grib2 2026-04-28 21:00 475K
20260428T18Z_MSC_RDPS_AirTemp_IsbL-0750_RLatLon0.09_PT069H.grib2 2026-04-28 21:00 400K
20260428T18Z_MSC_RDPS_AirTemp_IsbL-0800_RLatLon0.09_PT069H.grib2 2026-04-28 21:00 447K
20260428T18Z_MSC_RDPS_AirTemp_IsbL-0850_RLatLon0.09_PT069H.grib2 2026-04-28 21:00 500K
20260428T18Z_MSC_RDPS_AirTemp_IsbL-0875_RLatLon0.09_PT069H.grib2 2026-04-28 21:00 521K
20260428T18Z_MSC_RDPS_AirTemp_IsbL-0900_RLatLon0.09_PT069H.grib2 2026-04-28 21:00 529K
20260428T18Z_MSC_RDPS_AirTemp_IsbL-0925_RLatLon0.09_PT069H.grib2 2026-04-28 21:00 528K
20260428T18Z_MSC_RDPS_AirTemp_IsbL-0950_RLatLon0.09_PT069H.grib2 2026-04-28 21:00 531K
20260428T18Z_MSC_RDPS_AirTemp_IsbL-0970_RLatLon0.09_PT069H.grib2 2026-04-28 21:00 525K
20260428T18Z_MSC_RDPS_AirTemp_IsbL-0985_RLatLon0.09_PT069H.grib2 2026-04-28 21:00 516K
20260428T18Z_MSC_RDPS_AirTemp_IsbL-1000_RLatLon0.09_PT069H.grib2 2026-04-28 21:00 502K
20260428T18Z_MSC_RDPS_AirTemp_IsbL-1015_RLatLon0.09_PT069H.grib2 2026-04-28 21:00 500K
20260428T18Z_MSC_RDPS_Albedo_Sfc_RLatLon0.09_PT069H.grib2 2026-04-28 21:00 160K
20260428T18Z_MSC_RDPS_CAPE_Sfc_RLatLon0.09_PT069H.grib2 2026-04-28 21:00 1.7M
20260428T18Z_MSC_RDPS_CIN_Sfc_RLatLon0.09_PT069H.grib2 2026-04-28 21:00 1.1M
20260428T18Z_MSC_RDPS_CloudWater_EAtm_RLatLon0.09_PT069H.grib2 2026-04-28 21:00 219K
20260428T18Z_MSC_RDPS_ConvectivePrecip-Accum_Sfc_RLatLon0.09_PT069H.grib2 2026-04-28 21:00 1.2M
20260428T18Z_MSC_RDPS_DewPointDepression_AGL-2m_RLatLon0.09_PT069H.grib2 2026-04-28 21:00 412K
20260428T18Z_MSC_RDPS_DewPointDepression_IsbL-0001_RLatLon0.09_PT069H.grib2 2026-04-28 21:00 193
20260428T18Z_MSC_RDPS_DewPointDepression_IsbL-0005_RLatLon0.09_PT069H.grib2 2026-04-28 21:00 193
20260428T18Z_MSC_RDPS_DewPointDepression_IsbL-0010_RLatLon0.09_PT069H.grib2 2026-04-28 21:00 193
20260428T18Z_MSC_RDPS_DewPointDepression_IsbL-0020_RLatLon0.09_PT069H.grib2 2026-04-28 21:00 193
20260428T18Z_MSC_RDPS_DewPointDepression_IsbL-0030_RLatLon0.09_PT069H.grib2 2026-04-28 21:00 193
20260428T18Z_MSC_RDPS_DewPointDepression_IsbL-0050_RLatLon0.09_PT069H.grib2 2026-04-28 21:00 108K
20260428T18Z_MSC_RDPS_DewPointDepression_IsbL-0100_RLatLon0.09_PT069H.grib2 2026-04-28 21:00 125K
20260428T18Z_MSC_RDPS_DewPointDepression_IsbL-0150_RLatLon0.09_PT069H.grib2 2026-04-28 21:00 145K
20260428T18Z_MSC_RDPS_DewPointDepression_IsbL-0175_RLatLon0.09_PT069H.grib2 2026-04-28 21:00 179K
20260428T18Z_MSC_RDPS_DewPointDepression_IsbL-0200_RLatLon0.09_PT069H.grib2 2026-04-28 21:00 216K
20260428T18Z_MSC_RDPS_DewPointDepression_IsbL-0225_RLatLon0.09_PT069H.grib2 2026-04-28 21:00 253K
20260428T18Z_MSC_RDPS_DewPointDepression_IsbL-0250_RLatLon0.09_PT069H.grib2 2026-04-28 21:00 293K
20260428T18Z_MSC_RDPS_DewPointDepression_IsbL-0275_RLatLon0.09_PT069H.grib2 2026-04-28 21:00 301K
20260428T18Z_MSC_RDPS_DewPointDepression_IsbL-0300_RLatLon0.09_PT069H.grib2 2026-04-28 21:00 320K
20260428T18Z_MSC_RDPS_DewPointDepression_IsbL-0350_RLatLon0.09_PT069H.grib2 2026-04-28 21:00 326K
20260428T18Z_MSC_RDPS_DewPointDepression_IsbL-0400_RLatLon0.09_PT069H.grib2 2026-04-28 21:00 336K
20260428T18Z_MSC_RDPS_DewPointDepression_IsbL-0450_RLatLon0.09_PT069H.grib2 2026-04-28 21:00 344K
20260428T18Z_MSC_RDPS_DewPointDepression_IsbL-0500_RLatLon0.09_PT069H.grib2 2026-04-28 21:00 348K
20260428T18Z_MSC_RDPS_DewPointDepression_IsbL-0550_RLatLon0.09_PT069H.grib2 2026-04-28 21:00 358K
20260428T18Z_MSC_RDPS_DewPointDepression_IsbL-0600_RLatLon0.09_PT069H.grib2 2026-04-28 21:00 367K
20260428T18Z_MSC_RDPS_DewPointDepression_IsbL-0650_RLatLon0.09_PT069H.grib2 2026-04-28 21:00 370K
20260428T18Z_MSC_RDPS_DewPointDepression_IsbL-0700_RLatLon0.09_PT069H.grib2 2026-04-28 21:00 378K
20260428T18Z_MSC_RDPS_DewPointDepression_IsbL-0750_RLatLon0.09_PT069H.grib2 2026-04-28 21:00 396K
20260428T18Z_MSC_RDPS_DewPointDepression_IsbL-0800_RLatLon0.09_PT069H.grib2 2026-04-28 21:00 436K
20260428T18Z_MSC_RDPS_DewPointDepression_IsbL-0850_RLatLon0.09_PT069H.grib2 2026-04-28 21:00 471K
20260428T18Z_MSC_RDPS_DewPointDepression_IsbL-0875_RLatLon0.09_PT069H.grib2 2026-04-28 21:00 475K
20260428T18Z_MSC_RDPS_DewPointDepression_IsbL-0900_RLatLon0.09_PT069H.grib2 2026-04-28 21:00 465K
20260428T18Z_MSC_RDPS_DewPointDepression_IsbL-0925_RLatLon0.09_PT069H.grib2 2026-04-28 21:00 451K
20260428T18Z_MSC_RDPS_DewPointDepression_IsbL-0950_RLatLon0.09_PT069H.grib2 2026-04-28 21:00 446K
20260428T18Z_MSC_RDPS_DewPointDepression_IsbL-0970_RLatLon0.09_PT069H.grib2 2026-04-28 21:00 440K
20260428T18Z_MSC_RDPS_DewPointDepression_IsbL-0985_RLatLon0.09_PT069H.grib2 2026-04-28 21:00 437K
20260428T18Z_MSC_RDPS_DewPointDepression_IsbL-1000_RLatLon0.09_PT069H.grib2 2026-04-28 21:00 432K
20260428T18Z_MSC_RDPS_DewPointDepression_IsbL-1015_RLatLon0.09_PT069H.grib2 2026-04-28 21:00 425K
20260428T18Z_MSC_RDPS_DewPoint_AGL-2m_RLatLon0.09_PT069H.grib2 2026-04-28 21:00 401K
20260428T18Z_MSC_RDPS_DownwardLongwaveRadiationFlux-Accum_Sfc_RLatLon0.09_PT069H.grib2 2026-04-28 21:00 417K
20260428T18Z_MSC_RDPS_DownwardShortwaveRadiationFlux-Accum_NTAtm_RLatLon0.09_PT069H.grib2 2026-04-28 21:00 157K
20260428T18Z_MSC_RDPS_DownwardShortwaveRadiationFlux-Accum_Sfc_RLatLon0.09_PT069H.grib2 2026-04-28 21:00 607K
20260428T18Z_MSC_RDPS_FreezingRain-Accum1h_Sfc_RLatLon0.09_PT069H.grib2 2026-04-28 21:00 28K
20260428T18Z_MSC_RDPS_FreezingRain-Accum3h_Sfc_RLatLon0.09_PT069H.grib2 2026-04-28 21:00 44K
20260428T18Z_MSC_RDPS_FreezingRain-Accum_Sfc_RLatLon0.09_PT069H.grib2 2026-04-28 21:00 220K
20260428T18Z_MSC_RDPS_GeopotentialHeight_IsbL-0001_RLatLon0.09_PT069H.grib2 2026-04-28 21:00 317K
20260428T18Z_MSC_RDPS_GeopotentialHeight_IsbL-0005_RLatLon0.09_PT069H.grib2 2026-04-28 21:00 302K
20260428T18Z_MSC_RDPS_GeopotentialHeight_IsbL-0010_RLatLon0.09_PT069H.grib2 2026-04-28 21:00 304K
20260428T18Z_MSC_RDPS_GeopotentialHeight_IsbL-0020_RLatLon0.09_PT069H.grib2 2026-04-28 21:00 303K
20260428T18Z_MSC_RDPS_GeopotentialHeight_IsbL-0030_RLatLon0.09_PT069H.grib2 2026-04-28 21:00 304K
20260428T18Z_MSC_RDPS_GeopotentialHeight_IsbL-0050_RLatLon0.09_PT069H.grib2 2026-04-28 21:00 306K
20260428T18Z_MSC_RDPS_GeopotentialHeight_IsbL-0100_RLatLon0.09_PT069H.grib2 2026-04-28 21:00 282K
20260428T18Z_MSC_RDPS_GeopotentialHeight_IsbL-0150_RLatLon0.09_PT069H.grib2 2026-04-28 21:00 226K
20260428T18Z_MSC_RDPS_GeopotentialHeight_IsbL-0175_RLatLon0.09_PT069H.grib2 2026-04-28 21:00 229K
20260428T18Z_MSC_RDPS_GeopotentialHeight_IsbL-0200_RLatLon0.09_PT069H.grib2 2026-04-28 21:00 262K
20260428T18Z_MSC_RDPS_GeopotentialHeight_IsbL-0225_RLatLon0.09_PT069H.grib2 2026-04-28 21:00 264K
20260428T18Z_MSC_RDPS_GeopotentialHeight_IsbL-0250_RLatLon0.09_PT069H.grib2 2026-04-28 21:00 265K
20260428T18Z_MSC_RDPS_GeopotentialHeight_IsbL-0275_RLatLon0.09_PT069H.grib2 2026-04-28 21:00 264K
20260428T18Z_MSC_RDPS_GeopotentialHeight_IsbL-0300_RLatLon0.09_PT069H.grib2 2026-04-28 21:00 263K
20260428T18Z_MSC_RDPS_GeopotentialHeight_IsbL-0350_RLatLon0.09_PT069H.grib2 2026-04-28 21:00 229K
20260428T18Z_MSC_RDPS_GeopotentialHeight_IsbL-0400_RLatLon0.09_PT069H.grib2 2026-04-28 21:00 227K
20260428T18Z_MSC_RDPS_GeopotentialHeight_IsbL-0450_RLatLon0.09_PT069H.grib2 2026-04-28 21:00 295K
20260428T18Z_MSC_RDPS_GeopotentialHeight_IsbL-0500_RLatLon0.09_PT069H.grib2 2026-04-28 21:00 290K
20260428T18Z_MSC_RDPS_GeopotentialHeight_IsbL-0550_RLatLon0.09_PT069H.grib2 2026-04-28 21:00 286K
20260428T18Z_MSC_RDPS_GeopotentialHeight_IsbL-0600_RLatLon0.09_PT069H.grib2 2026-04-28 21:00 281K
20260428T18Z_MSC_RDPS_GeopotentialHeight_IsbL-0650_RLatLon0.09_PT069H.grib2 2026-04-28 21:00 254K
20260428T18Z_MSC_RDPS_GeopotentialHeight_IsbL-0700_RLatLon0.09_PT069H.grib2 2026-04-28 21:00 333K
20260428T18Z_MSC_RDPS_GeopotentialHeight_IsbL-0750_RLatLon0.09_PT069H.grib2 2026-04-28 21:00 335K
20260428T18Z_MSC_RDPS_GeopotentialHeight_IsbL-0800_RLatLon0.09_PT069H.grib2 2026-04-28 21:00 344K
20260428T18Z_MSC_RDPS_GeopotentialHeight_IsbL-0850_RLatLon0.09_PT069H.grib2 2026-04-28 21:00 354K
20260428T18Z_MSC_RDPS_GeopotentialHeight_IsbL-0875_RLatLon0.09_PT069H.grib2 2026-04-28 21:00 356K
20260428T18Z_MSC_RDPS_GeopotentialHeight_IsbL-0900_RLatLon0.09_PT069H.grib2 2026-04-28 21:00 361K
20260428T18Z_MSC_RDPS_GeopotentialHeight_IsbL-0925_RLatLon0.09_PT069H.grib2 2026-04-28 21:00 365K
20260428T18Z_MSC_RDPS_GeopotentialHeight_IsbL-0950_RLatLon0.09_PT069H.grib2 2026-04-28 21:00 367K
20260428T18Z_MSC_RDPS_GeopotentialHeight_IsbL-0970_RLatLon0.09_PT069H.grib2 2026-04-28 21:00 374K
20260428T18Z_MSC_RDPS_GeopotentialHeight_IsbL-0985_RLatLon0.09_PT069H.grib2 2026-04-28 21:00 384K
20260428T18Z_MSC_RDPS_GeopotentialHeight_IsbL-1000_RLatLon0.09_PT069H.grib2 2026-04-28 21:00 397K
20260428T18Z_MSC_RDPS_GeopotentialHeight_IsbL-1015_RLatLon0.09_PT069H.grib2 2026-04-28 21:00 413K
20260428T18Z_MSC_RDPS_Humidex_Sfc_RLatLon0.09_PT069H.grib2 2026-04-28 21:00 2.4M
20260428T18Z_MSC_RDPS_IcePellets-Accum1h_Sfc_RLatLon0.09_PT069H.grib2 2026-04-28 21:00 6.7K
20260428T18Z_MSC_RDPS_IcePellets-Accum3h_Sfc_RLatLon0.09_PT069H.grib2 2026-04-28 21:00 7.8K
20260428T18Z_MSC_RDPS_IcePellets-Accum_Sfc_RLatLon0.09_PT069H.grib2 2026-04-28 21:00 30K
20260428T18Z_MSC_RDPS_KIndex_Sfc_RLatLon0.09_PT069H.grib2 2026-04-28 21:00 2.5M
20260428T18Z_MSC_RDPS_LatentHeatNetFlux_Sfc_RLatLon0.09_PT069H.grib2 2026-04-28 21:00 376K
20260428T18Z_MSC_RDPS_LiftedIndex-MU-VT_IsbL-0500_RLatLon0.09_PT069H.grib2 2026-04-28 21:00 2.4M
20260428T18Z_MSC_RDPS_NetLongwaveRadiationFlux-Accum_Sfc_RLatLon0.09_PT069H.grib2 2026-04-28 21:00 594K
20260428T18Z_MSC_RDPS_NetShortwaveRadiationFlux-Accum_Sfc_RLatLon0.09_PT069H.grib2 2026-04-28 21:00 608K
20260428T18Z_MSC_RDPS_PlanetaryBoundaryLayerHeight_Sfc_RLatLon0.09_PT069H.grib2 2026-04-28 21:00 1.2M
20260428T18Z_MSC_RDPS_Precip-Accum1h_Sfc_RLatLon0.09_PT069H.grib2 2026-04-28 21:00 1.2M
20260428T18Z_MSC_RDPS_Precip-Accum3h_Sfc_RLatLon0.09_PT069H.grib2 2026-04-28 21:00 1.3M
20260428T18Z_MSC_RDPS_Precip-Accum_Sfc_RLatLon0.09_PT069H.grib2 2026-04-28 21:00 2.1M
20260428T18Z_MSC_RDPS_PrecipRate_Sfc_RLatLon0.09_PT069H.grib2 2026-04-28 21:00 183K
20260428T18Z_MSC_RDPS_PrecipType-Instant_Sfc_RLatLon0.09_PT069H.grib2 2026-04-28 21:00 555K
20260428T18Z_MSC_RDPS_Pressure-Trend3h_Sfc_RLatLon0.09_PT069H.grib2 2026-04-28 21:00 1.2M
20260428T18Z_MSC_RDPS_Pressure_MSL_RLatLon0.09_PT069H.grib2 2026-04-28 21:00 327K
20260428T18Z_MSC_RDPS_Pressure_PVU-1.5_RLatLon0.09_PT069H.grib2 2026-04-28 21:00 2.3M
20260428T18Z_MSC_RDPS_Pressure_PVU-1_RLatLon0.09_PT069H.grib2 2026-04-28 21:00 2.4M
20260428T18Z_MSC_RDPS_Pressure_PVU-2_RLatLon0.09_PT069H.grib2 2026-04-28 21:00 2.4M
20260428T18Z_MSC_RDPS_Pressure_Sfc_RLatLon0.09_PT069H.grib2 2026-04-28 21:00 499K
20260428T18Z_MSC_RDPS_RadiativeTemp_Sfc_RLatLon0.09_PT069H.grib2 2026-04-28 21:00 321K
20260428T18Z_MSC_RDPS_Rain-Accum1h_Sfc_RLatLon0.09_PT069H.grib2 2026-04-28 21:00 585K
20260428T18Z_MSC_RDPS_Rain-Accum3h_Sfc_RLatLon0.09_PT069H.grib2 2026-04-28 21:00 665K
20260428T18Z_MSC_RDPS_Rain-Accum_Sfc_RLatLon0.09_PT069H.grib2 2026-04-28 21:00 1.7M
20260428T18Z_MSC_RDPS_RelativeHumidity_AGL-2m_RLatLon0.09_PT069H.grib2 2026-04-28 21:00 1.0M
20260428T18Z_MSC_RDPS_RelativeHumidity_IsbL-0010_RLatLon0.09_PT069H.grib2 2026-04-28 21:00 629K
20260428T18Z_MSC_RDPS_RelativeHumidity_IsbL-0020_RLatLon0.09_PT069H.grib2 2026-04-28 21:00 673K
20260428T18Z_MSC_RDPS_RelativeHumidity_IsbL-0030_RLatLon0.09_PT069H.grib2 2026-04-28 21:00 605K
20260428T18Z_MSC_RDPS_RelativeHumidity_IsbL-0050_RLatLon0.09_PT069H.grib2 2026-04-28 21:00 362K
20260428T18Z_MSC_RDPS_RelativeHumidity_IsbL-0100_RLatLon0.09_PT069H.grib2 2026-04-28 21:00 273K
20260428T18Z_MSC_RDPS_RelativeHumidity_IsbL-0150_RLatLon0.09_PT069H.grib2 2026-04-28 21:00 391K
20260428T18Z_MSC_RDPS_RelativeHumidity_IsbL-0175_RLatLon0.09_PT069H.grib2 2026-04-28 21:00 460K
20260428T18Z_MSC_RDPS_RelativeHumidity_IsbL-0200_RLatLon0.09_PT069H.grib2 2026-04-28 21:00 549K
20260428T18Z_MSC_RDPS_RelativeHumidity_IsbL-0225_RLatLon0.09_PT069H.grib2 2026-04-28 21:00 617K
20260428T18Z_MSC_RDPS_RelativeHumidity_IsbL-0250_RLatLon0.09_PT069H.grib2 2026-04-28 21:00 685K
20260428T18Z_MSC_RDPS_RelativeHumidity_IsbL-0275_RLatLon0.09_PT069H.grib2 2026-04-28 21:00 711K
20260428T18Z_MSC_RDPS_RelativeHumidity_IsbL-0300_RLatLon0.09_PT069H.grib2 2026-04-28 21:00 752K
20260428T18Z_MSC_RDPS_RelativeHumidity_IsbL-0350_RLatLon0.09_PT069H.grib2 2026-04-28 21:00 769K
20260428T18Z_MSC_RDPS_RelativeHumidity_IsbL-0400_RLatLon0.09_PT069H.grib2 2026-04-28 21:00 783K
20260428T18Z_MSC_RDPS_RelativeHumidity_IsbL-0450_RLatLon0.09_PT069H.grib2 2026-04-28 21:00 791K
20260428T18Z_MSC_RDPS_RelativeHumidity_IsbL-0500_RLatLon0.09_PT069H.grib2 2026-04-28 21:00 796K
20260428T18Z_MSC_RDPS_RelativeHumidity_IsbL-0550_RLatLon0.09_PT069H.grib2 2026-04-28 21:00 822K
20260428T18Z_MSC_RDPS_RelativeHumidity_IsbL-0600_RLatLon0.09_PT069H.grib2 2026-04-28 21:00 831K
20260428T18Z_MSC_RDPS_RelativeHumidity_IsbL-0650_RLatLon0.09_PT069H.grib2 2026-04-28 21:00 840K
20260428T18Z_MSC_RDPS_RelativeHumidity_IsbL-0700_RLatLon0.09_PT069H.grib2 2026-04-28 21:00 869K
20260428T18Z_MSC_RDPS_RelativeHumidity_IsbL-0750_RLatLon0.09_PT069H.grib2 2026-04-28 21:00 908K
20260428T18Z_MSC_RDPS_RelativeHumidity_IsbL-0800_RLatLon0.09_PT069H.grib2 2026-04-28 21:00 1.0M
20260428T18Z_MSC_RDPS_RelativeHumidity_IsbL-0850_RLatLon0.09_PT069H.grib2 2026-04-28 21:00 1.0M
20260428T18Z_MSC_RDPS_RelativeHumidity_IsbL-0875_RLatLon0.09_PT069H.grib2 2026-04-28 21:00 1.1M
20260428T18Z_MSC_RDPS_RelativeHumidity_IsbL-0900_RLatLon0.09_PT069H.grib2 2026-04-28 21:00 1.1M
20260428T18Z_MSC_RDPS_RelativeHumidity_IsbL-0925_RLatLon0.09_PT069H.grib2 2026-04-28 21:00 1.1M
20260428T18Z_MSC_RDPS_RelativeHumidity_IsbL-0950_RLatLon0.09_PT069H.grib2 2026-04-28 21:00 1.1M
20260428T18Z_MSC_RDPS_RelativeHumidity_IsbL-0970_RLatLon0.09_PT069H.grib2 2026-04-28 21:00 1.1M
20260428T18Z_MSC_RDPS_RelativeHumidity_IsbL-0985_RLatLon0.09_PT069H.grib2 2026-04-28 21:00 1.0M
20260428T18Z_MSC_RDPS_RelativeHumidity_IsbL-1000_RLatLon0.09_PT069H.grib2 2026-04-28 21:00 1.0M
20260428T18Z_MSC_RDPS_RelativeHumidity_IsbL-1015_RLatLon0.09_PT069H.grib2 2026-04-28 21:00 1.0M
20260428T18Z_MSC_RDPS_Runoff-Accum_Sfc_RLatLon0.09_PT069H.grib2 2026-04-28 21:00 63K
20260428T18Z_MSC_RDPS_SWEATIndex_Sfc_RLatLon0.09_PT069H.grib2 2026-04-28 21:00 2.4M
20260428T18Z_MSC_RDPS_SeeingIndex_EAtm_RLatLon0.09_PT069H.grib2 2026-04-28 21:00 1.0M
20260428T18Z_MSC_RDPS_SensibleHeatNetFlux_Sfc_RLatLon0.09_PT069H.grib2 2026-04-28 21:00 351K
20260428T18Z_MSC_RDPS_ShowalterIndex_IsbL-0500_RLatLon0.09_PT069H.grib2 2026-04-28 21:00 2.6M
20260428T18Z_MSC_RDPS_SkyTransparencyIndex_EAtm_RLatLon0.09_PT069H.grib2 2026-04-28 21:00 704K
20260428T18Z_MSC_RDPS_Snow-Accum1h_Sfc_RLatLon0.09_PT069H.grib2 2026-04-28 21:00 457K
20260428T18Z_MSC_RDPS_Snow-Accum3h_Sfc_RLatLon0.09_PT069H.grib2 2026-04-28 21:00 458K
20260428T18Z_MSC_RDPS_Snow-Accum_Sfc_RLatLon0.09_PT069H.grib2 2026-04-28 21:00 793K
20260428T18Z_MSC_RDPS_SnowDensity_Sfc_RLatLon0.09_PT069H.grib2 2026-04-28 21:00 183K
20260428T18Z_MSC_RDPS_SnowDepth_Sfc_RLatLon0.09_PT069H.grib2 2026-04-28 21:00 681K
20260428T18Z_MSC_RDPS_SoilTemp_DBS-0to10cm_RLatLon0.09_PT069H.grib2 2026-04-28 21:00 242K
20260428T18Z_MSC_RDPS_SoilTemp_Sfc_RLatLon0.09_PT069H.grib2 2026-04-28 21:00 290K
20260428T18Z_MSC_RDPS_SoilVolumetricIceContent_Sfc_RLatLon0.09_PT069H.grib2 2026-04-28 21:00 163K
20260428T18Z_MSC_RDPS_SoilVolumetricWaterContent_DBS-0to10cm_RLatLon0.09_PT069H.grib2 2026-04-28 21:00 270K
20260428T18Z_MSC_RDPS_SoilVolumetricWaterContent_DBS-0to1cm_RLatLon0.09_PT069H.grib2 2026-04-28 21:00 339K
20260428T18Z_MSC_RDPS_SpecificHumidity_AGL-120m_RLatLon0.09_PT069H.grib2 2026-04-28 21:00 496K
20260428T18Z_MSC_RDPS_SpecificHumidity_AGL-2m_RLatLon0.09_PT069H.grib2 2026-04-28 21:00 664K
20260428T18Z_MSC_RDPS_SpecificHumidity_AGL-40m_RLatLon0.09_PT069H.grib2 2026-04-28 21:00 501K
20260428T18Z_MSC_RDPS_SpecificHumidity_AGL-80m_RLatLon0.09_PT069H.grib2 2026-04-28 21:00 498K
20260428T18Z_MSC_RDPS_SpecificHumidity_IsbL-0001_RLatLon0.09_PT069H.grib2 2026-04-28 21:00 366K
20260428T18Z_MSC_RDPS_SpecificHumidity_IsbL-0005_RLatLon0.09_PT069H.grib2 2026-04-28 21:00 353K
20260428T18Z_MSC_RDPS_SpecificHumidity_IsbL-0010_RLatLon0.09_PT069H.grib2 2026-04-28 21:00 388K
20260428T18Z_MSC_RDPS_SpecificHumidity_IsbL-0020_RLatLon0.09_PT069H.grib2 2026-04-28 21:00 376K
20260428T18Z_MSC_RDPS_SpecificHumidity_IsbL-0030_RLatLon0.09_PT069H.grib2 2026-04-28 21:00 469K
20260428T18Z_MSC_RDPS_SpecificHumidity_IsbL-0050_RLatLon0.09_PT069H.grib2 2026-04-28 21:00 438K
20260428T18Z_MSC_RDPS_SpecificHumidity_IsbL-0100_RLatLon0.09_PT069H.grib2 2026-04-28 21:00 522K
20260428T18Z_MSC_RDPS_SpecificHumidity_IsbL-0150_RLatLon0.09_PT069H.grib2 2026-04-28 21:00 459K
20260428T18Z_MSC_RDPS_SpecificHumidity_IsbL-0175_RLatLon0.09_PT069H.grib2 2026-04-28 21:00 416K
20260428T18Z_MSC_RDPS_SpecificHumidity_IsbL-0200_RLatLon0.09_PT069H.grib2 2026-04-28 21:00 439K
20260428T18Z_MSC_RDPS_SpecificHumidity_IsbL-0225_RLatLon0.09_PT069H.grib2 2026-04-28 21:00 443K
20260428T18Z_MSC_RDPS_SpecificHumidity_IsbL-0250_RLatLon0.09_PT069H.grib2 2026-04-28 21:00 505K
20260428T18Z_MSC_RDPS_SpecificHumidity_IsbL-0275_RLatLon0.09_PT069H.grib2 2026-04-28 21:00 467K
20260428T18Z_MSC_RDPS_SpecificHumidity_IsbL-0300_RLatLon0.09_PT069H.grib2 2026-04-28 21:00 441K
20260428T18Z_MSC_RDPS_SpecificHumidity_IsbL-0350_RLatLon0.09_PT069H.grib2 2026-04-28 21:00 555K
20260428T18Z_MSC_RDPS_SpecificHumidity_IsbL-0400_RLatLon0.09_PT069H.grib2 2026-04-28 21:00 510K
20260428T18Z_MSC_RDPS_SpecificHumidity_IsbL-0450_RLatLon0.09_PT069H.grib2 2026-04-28 21:00 565K
20260428T18Z_MSC_RDPS_SpecificHumidity_IsbL-0500_RLatLon0.09_PT069H.grib2 2026-04-28 21:00 501K
20260428T18Z_MSC_RDPS_SpecificHumidity_IsbL-0550_RLatLon0.09_PT069H.grib2 2026-04-28 21:00 572K
20260428T18Z_MSC_RDPS_SpecificHumidity_IsbL-0600_RLatLon0.09_PT069H.grib2 2026-04-28 21:00 622K
20260428T18Z_MSC_RDPS_SpecificHumidity_IsbL-0650_RLatLon0.09_PT069H.grib2 2026-04-28 21:00 537K
20260428T18Z_MSC_RDPS_SpecificHumidity_IsbL-0700_RLatLon0.09_PT069H.grib2 2026-04-28 21:00 577K
20260428T18Z_MSC_RDPS_SpecificHumidity_IsbL-0750_RLatLon0.09_PT069H.grib2 2026-04-28 21:00 632K
20260428T18Z_MSC_RDPS_SpecificHumidity_IsbL-0800_RLatLon0.09_PT069H.grib2 2026-04-28 21:00 711K
20260428T18Z_MSC_RDPS_SpecificHumidity_IsbL-0850_RLatLon0.09_PT069H.grib2 2026-04-28 21:00 801K
20260428T18Z_MSC_RDPS_SpecificHumidity_IsbL-0875_RLatLon0.09_PT069H.grib2 2026-04-28 21:00 831K
20260428T18Z_MSC_RDPS_SpecificHumidity_IsbL-0900_RLatLon0.09_PT069H.grib2 2026-04-28 21:00 843K
20260428T18Z_MSC_RDPS_SpecificHumidity_IsbL-0925_RLatLon0.09_PT069H.grib2 2026-04-28 21:00 845K
20260428T18Z_MSC_RDPS_SpecificHumidity_IsbL-0950_RLatLon0.09_PT069H.grib2 2026-04-28 21:00 707K
20260428T18Z_MSC_RDPS_SpecificHumidity_IsbL-0970_RLatLon0.09_PT069H.grib2 2026-04-28 21:00 699K
20260428T18Z_MSC_RDPS_SpecificHumidity_IsbL-0985_RLatLon0.09_PT069H.grib2 2026-04-28 21:00 692K
20260428T18Z_MSC_RDPS_SpecificHumidity_IsbL-1000_RLatLon0.09_PT069H.grib2 2026-04-28 21:00 684K
20260428T18Z_MSC_RDPS_SpecificHumidity_IsbL-1015_RLatLon0.09_PT069H.grib2 2026-04-28 21:00 674K
20260428T18Z_MSC_RDPS_SpecificHumidity_Sfc_RLatLon0.09_PT069H.grib2 2026-04-28 21:00 316K
20260428T18Z_MSC_RDPS_StormRelativeHelicity_EtaL-10000_RLatLon0.09_PT069H.grib2 2026-04-28 21:00 1.1M
20260428T18Z_MSC_RDPS_StormSeverityIndex_EtaL-10000_RLatLon0.09_PT069H.grib2 2026-04-28 21:00 1.1M
20260428T18Z_MSC_RDPS_Thickness_IsbL-0850to0700_RLatLon0.09_PT069H.grib2 2026-04-28 21:00 175K
20260428T18Z_MSC_RDPS_Thickness_IsbL-1000to0500_RLatLon0.09_PT069H.grib2 2026-04-28 21:00 197K
20260428T18Z_MSC_RDPS_Thickness_IsbL-1000to0850_RLatLon0.09_PT069H.grib2 2026-04-28 21:00 264K
20260428T18Z_MSC_RDPS_TotalCloudCover_Sfc_RLatLon0.09_PT069H.grib2 2026-04-28 21:00 644K
20260428T18Z_MSC_RDPS_TotalTotalsIndex_Sfc_RLatLon0.09_PT069H.grib2 2026-04-28 21:00 2.4M
20260428T18Z_MSC_RDPS_UVIndex-ClearSky_Sfc_RLatLon0.09_PT069H.grib2 2026-04-28 21:00 182K
20260428T18Z_MSC_RDPS_UVIndex_Sfc_RLatLon0.09_PT069H.grib2 2026-04-28 21:00 410K
20260428T18Z_MSC_RDPS_UpwardLongwaveRadiationFlux_NTAtm_RLatLon0.09_PT069H.grib2 2026-04-28 21:00 479K
20260428T18Z_MSC_RDPS_UpwardShortwaveRadiationFlux_NTAtm_RLatLon0.09_PT069H.grib2 2026-04-28 21:00 456K
20260428T18Z_MSC_RDPS_VerticalVelocity_IsbL-0250_RLatLon0.09_PT069H.grib2 2026-04-28 21:00 542K
20260428T18Z_MSC_RDPS_VerticalVelocity_IsbL-0500_RLatLon0.09_PT069H.grib2 2026-04-28 21:00 538K
20260428T18Z_MSC_RDPS_VerticalVelocity_IsbL-0700_RLatLon0.09_PT069H.grib2 2026-04-28 21:00 611K
20260428T18Z_MSC_RDPS_VerticalVelocity_IsbL-0850_RLatLon0.09_PT069H.grib2 2026-04-28 21:00 702K
20260428T18Z_MSC_RDPS_VerticalWindShear_EtaL-6500_RLatLon0.09_PT069H.grib2 2026-04-28 21:00 1.2M
20260428T18Z_MSC_RDPS_WindChill_Sfc_RLatLon0.09_PT069H.grib2 2026-04-28 21:00 1.2M
20260428T18Z_MSC_RDPS_WindDir_AGL-10m_RLatLon0.09_PT069H.grib2 2026-04-28 21:00 959K
20260428T18Z_MSC_RDPS_WindDir_AGL-120m_RLatLon0.09_PT069H.grib2 2026-04-28 21:00 603K
20260428T18Z_MSC_RDPS_WindDir_AGL-40m_RLatLon0.09_PT069H.grib2 2026-04-28 21:00 628K
20260428T18Z_MSC_RDPS_WindDir_AGL-80m_RLatLon0.09_PT069H.grib2 2026-04-28 21:00 613K
20260428T18Z_MSC_RDPS_WindDir_IsbL-0001_RLatLon0.09_PT069H.grib2 2026-04-28 21:00 303K
20260428T18Z_MSC_RDPS_WindDir_IsbL-0005_RLatLon0.09_PT069H.grib2 2026-04-28 21:00 378K
20260428T18Z_MSC_RDPS_WindDir_IsbL-0010_RLatLon0.09_PT069H.grib2 2026-04-28 21:00 380K
20260428T18Z_MSC_RDPS_WindDir_IsbL-0020_RLatLon0.09_PT069H.grib2 2026-04-28 21:00 422K
20260428T18Z_MSC_RDPS_WindDir_IsbL-0030_RLatLon0.09_PT069H.grib2 2026-04-28 21:00 419K
20260428T18Z_MSC_RDPS_WindDir_IsbL-0050_RLatLon0.09_PT069H.grib2 2026-04-28 21:00 426K
20260428T18Z_MSC_RDPS_WindDir_IsbL-0100_RLatLon0.09_PT069H.grib2 2026-04-28 21:00 418K
20260428T18Z_MSC_RDPS_WindDir_IsbL-0150_RLatLon0.09_PT069H.grib2 2026-04-28 21:00 414K
20260428T18Z_MSC_RDPS_WindDir_IsbL-0175_RLatLon0.09_PT069H.grib2 2026-04-28 21:00 439K
20260428T18Z_MSC_RDPS_WindDir_IsbL-0200_RLatLon0.09_PT069H.grib2 2026-04-28 21:00 448K
20260428T18Z_MSC_RDPS_WindDir_IsbL-0225_RLatLon0.09_PT069H.grib2 2026-04-28 21:00 449K
20260428T18Z_MSC_RDPS_WindDir_IsbL-0250_RLatLon0.09_PT069H.grib2 2026-04-28 21:00 447K
20260428T18Z_MSC_RDPS_WindDir_IsbL-0275_RLatLon0.09_PT069H.grib2 2026-04-28 21:00 471K
20260428T18Z_MSC_RDPS_WindDir_IsbL-0300_RLatLon0.09_PT069H.grib2 2026-04-28 21:00 474K
20260428T18Z_MSC_RDPS_WindDir_IsbL-0350_RLatLon0.09_PT069H.grib2 2026-04-28 21:00 490K
20260428T18Z_MSC_RDPS_WindDir_IsbL-0400_RLatLon0.09_PT069H.grib2 2026-04-28 21:00 505K
20260428T18Z_MSC_RDPS_WindDir_IsbL-0450_RLatLon0.09_PT069H.grib2 2026-04-28 21:00 517K
20260428T18Z_MSC_RDPS_WindDir_IsbL-0500_RLatLon0.09_PT069H.grib2 2026-04-28 21:00 533K
20260428T18Z_MSC_RDPS_WindDir_IsbL-0550_RLatLon0.09_PT069H.grib2 2026-04-28 21:00 548K
20260428T18Z_MSC_RDPS_WindDir_IsbL-0600_RLatLon0.09_PT069H.grib2 2026-04-28 21:00 572K
20260428T18Z_MSC_RDPS_WindDir_IsbL-0650_RLatLon0.09_PT069H.grib2 2026-04-28 21:00 610K
20260428T18Z_MSC_RDPS_WindDir_IsbL-0700_RLatLon0.09_PT069H.grib2 2026-04-28 21:00 652K
20260428T18Z_MSC_RDPS_WindDir_IsbL-0750_RLatLon0.09_PT069H.grib2 2026-04-28 21:00 702K
20260428T18Z_MSC_RDPS_WindDir_IsbL-0800_RLatLon0.09_PT069H.grib2 2026-04-28 21:00 762K
20260428T18Z_MSC_RDPS_WindDir_IsbL-0850_RLatLon0.09_PT069H.grib2 2026-04-28 21:00 839K
20260428T18Z_MSC_RDPS_WindDir_IsbL-0875_RLatLon0.09_PT069H.grib2 2026-04-28 21:00 869K
20260428T18Z_MSC_RDPS_WindDir_IsbL-0900_RLatLon0.09_PT069H.grib2 2026-04-28 21:00 887K
20260428T18Z_MSC_RDPS_WindDir_IsbL-0925_RLatLon0.09_PT069H.grib2 2026-04-28 21:00 898K
20260428T18Z_MSC_RDPS_WindDir_IsbL-0950_RLatLon0.09_PT069H.grib2 2026-04-28 21:00 898K
20260428T18Z_MSC_RDPS_WindDir_IsbL-0970_RLatLon0.09_PT069H.grib2 2026-04-28 21:00 908K
20260428T18Z_MSC_RDPS_WindDir_IsbL-0985_RLatLon0.09_PT069H.grib2 2026-04-28 21:00 919K
20260428T18Z_MSC_RDPS_WindDir_IsbL-1000_RLatLon0.09_PT069H.grib2 2026-04-28 21:00 934K
20260428T18Z_MSC_RDPS_WindDir_IsbL-1015_RLatLon0.09_PT069H.grib2 2026-04-28 21:00 950K
20260428T18Z_MSC_RDPS_WindGust-Max_AGL-10m_RLatLon0.09_PT069H.grib2 2026-04-28 21:00 1.0M
20260428T18Z_MSC_RDPS_WindGust-Min_AGL-10m_RLatLon0.09_PT069H.grib2 2026-04-28 21:00 1.0M
20260428T18Z_MSC_RDPS_WindGust_AGL-10m_RLatLon0.09_PT069H.grib2 2026-04-28 21:00 1.0M
20260428T18Z_MSC_RDPS_WindSpeed_AGL-10m_RLatLon0.09_PT069H.grib2 2026-04-28 21:00 837K
20260428T18Z_MSC_RDPS_WindSpeed_AGL-120m_RLatLon0.09_PT069H.grib2 2026-04-28 21:00 538K
20260428T18Z_MSC_RDPS_WindSpeed_AGL-40m_RLatLon0.09_PT069H.grib2 2026-04-28 21:00 667K
20260428T18Z_MSC_RDPS_WindSpeed_AGL-80m_RLatLon0.09_PT069H.grib2 2026-04-28 21:00 667K
20260428T18Z_MSC_RDPS_WindSpeed_IsbL-0001_RLatLon0.09_PT069H.grib2 2026-04-28 21:00 254K
20260428T18Z_MSC_RDPS_WindSpeed_IsbL-0005_RLatLon0.09_PT069H.grib2 2026-04-28 21:00 382K
20260428T18Z_MSC_RDPS_WindSpeed_IsbL-0010_RLatLon0.09_PT069H.grib2 2026-04-28 21:00 305K
20260428T18Z_MSC_RDPS_WindSpeed_IsbL-0020_RLatLon0.09_PT069H.grib2 2026-04-28 21:00 325K
20260428T18Z_MSC_RDPS_WindSpeed_IsbL-0030_RLatLon0.09_PT069H.grib2 2026-04-28 21:00 417K
20260428T18Z_MSC_RDPS_WindSpeed_IsbL-0050_RLatLon0.09_PT069H.grib2 2026-04-28 21:00 347K
20260428T18Z_MSC_RDPS_WindSpeed_IsbL-0100_RLatLon0.09_PT069H.grib2 2026-04-28 21:00 470K
20260428T18Z_MSC_RDPS_WindSpeed_IsbL-0150_RLatLon0.09_PT069H.grib2 2026-04-28 21:00 374K
20260428T18Z_MSC_RDPS_WindSpeed_IsbL-0175_RLatLon0.09_PT069H.grib2 2026-04-28 21:00 420K
20260428T18Z_MSC_RDPS_WindSpeed_IsbL-0200_RLatLon0.09_PT069H.grib2 2026-04-28 21:00 436K
20260428T18Z_MSC_RDPS_WindSpeed_IsbL-0225_RLatLon0.09_PT069H.grib2 2026-04-28 21:00 445K
20260428T18Z_MSC_RDPS_WindSpeed_IsbL-0250_RLatLon0.09_PT069H.grib2 2026-04-28 21:00 446K
20260428T18Z_MSC_RDPS_WindSpeed_IsbL-0275_RLatLon0.09_PT069H.grib2 2026-04-28 21:00 462K
20260428T18Z_MSC_RDPS_WindSpeed_IsbL-0300_RLatLon0.09_PT069H.grib2 2026-04-28 21:00 461K
20260428T18Z_MSC_RDPS_WindSpeed_IsbL-0350_RLatLon0.09_PT069H.grib2 2026-04-28 21:00 470K
20260428T18Z_MSC_RDPS_WindSpeed_IsbL-0400_RLatLon0.09_PT069H.grib2 2026-04-28 21:00 473K
20260428T18Z_MSC_RDPS_WindSpeed_IsbL-0450_RLatLon0.09_PT069H.grib2 2026-04-28 21:00 455K
20260428T18Z_MSC_RDPS_WindSpeed_IsbL-0500_RLatLon0.09_PT069H.grib2 2026-04-28 21:00 455K
20260428T18Z_MSC_RDPS_WindSpeed_IsbL-0550_RLatLon0.09_PT069H.grib2 2026-04-28 21:00 455K
20260428T18Z_MSC_RDPS_WindSpeed_IsbL-0600_RLatLon0.09_PT069H.grib2 2026-04-28 21:00 581K
20260428T18Z_MSC_RDPS_WindSpeed_IsbL-0650_RLatLon0.09_PT069H.grib2 2026-04-28 21:00 603K
20260428T18Z_MSC_RDPS_WindSpeed_IsbL-0700_RLatLon0.09_PT069H.grib2 2026-04-28 21:00 670K
20260428T18Z_MSC_RDPS_WindSpeed_IsbL-0750_RLatLon0.09_PT069H.grib2 2026-04-28 21:00 700K
20260428T18Z_MSC_RDPS_WindSpeed_IsbL-0800_RLatLon0.09_PT069H.grib2 2026-04-28 21:00 747K
20260428T18Z_MSC_RDPS_WindSpeed_IsbL-0850_RLatLon0.09_PT069H.grib2 2026-04-28 21:00 809K
20260428T18Z_MSC_RDPS_WindSpeed_IsbL-0875_RLatLon0.09_PT069H.grib2 2026-04-28 21:00 832K
20260428T18Z_MSC_RDPS_WindSpeed_IsbL-0900_RLatLon0.09_PT069H.grib2 2026-04-28 21:00 848K
20260428T18Z_MSC_RDPS_WindSpeed_IsbL-0925_RLatLon0.09_PT069H.grib2 2026-04-28 21:00 859K
20260428T18Z_MSC_RDPS_WindSpeed_IsbL-0950_RLatLon0.09_PT069H.grib2 2026-04-28 21:00 855K
20260428T18Z_MSC_RDPS_WindSpeed_IsbL-0970_RLatLon0.09_PT069H.grib2 2026-04-28 21:00 854K
20260428T18Z_MSC_RDPS_WindSpeed_IsbL-0985_RLatLon0.09_PT069H.grib2 2026-04-28 21:00 850K
20260428T18Z_MSC_RDPS_WindSpeed_IsbL-1000_RLatLon0.09_PT069H.grib2 2026-04-28 21:00 846K
20260428T18Z_MSC_RDPS_WindSpeed_IsbL-1015_RLatLon0.09_PT069H.grib2 2026-04-28 21:00 837K
20260428T18Z_MSC_RDPS_WindU_AGL-10m_RLatLon0.09_PT069H.grib2 2026-04-28 21:00 432K
20260428T18Z_MSC_RDPS_WindU_AGL-120m_RLatLon0.09_PT069H.grib2 2026-04-28 21:00 536K
20260428T18Z_MSC_RDPS_WindU_AGL-40m_RLatLon0.09_PT069H.grib2 2026-04-28 21:00 536K
20260428T18Z_MSC_RDPS_WindU_AGL-80m_RLatLon0.09_PT069H.grib2 2026-04-28 21:00 536K
20260428T18Z_MSC_RDPS_WindU_IsbL-0001_RLatLon0.09_PT069H.grib2 2026-04-28 21:00 294K
20260428T18Z_MSC_RDPS_WindU_IsbL-0005_RLatLon0.09_PT069H.grib2 2026-04-28 21:00 287K
20260428T18Z_MSC_RDPS_WindU_IsbL-0010_RLatLon0.09_PT069H.grib2 2026-04-28 21:00 297K
20260428T18Z_MSC_RDPS_WindU_IsbL-0020_RLatLon0.09_PT069H.grib2 2026-04-28 21:00 315K
20260428T18Z_MSC_RDPS_WindU_IsbL-0030_RLatLon0.09_PT069H.grib2 2026-04-28 21:00 314K
20260428T18Z_MSC_RDPS_WindU_IsbL-0050_RLatLon0.09_PT069H.grib2 2026-04-28 21:00 343K
20260428T18Z_MSC_RDPS_WindU_IsbL-0100_RLatLon0.09_PT069H.grib2 2026-04-28 21:00 425K
20260428T18Z_MSC_RDPS_WindU_IsbL-0150_RLatLon0.09_PT069H.grib2 2026-04-28 21:00 390K
20260428T18Z_MSC_RDPS_WindU_IsbL-0175_RLatLon0.09_PT069H.grib2 2026-04-28 21:00 413K
20260428T18Z_MSC_RDPS_WindU_IsbL-0200_RLatLon0.09_PT069H.grib2 2026-04-28 21:00 332K
20260428T18Z_MSC_RDPS_WindU_IsbL-0225_RLatLon0.09_PT069H.grib2 2026-04-28 21:00 337K
20260428T18Z_MSC_RDPS_WindU_IsbL-0250_RLatLon0.09_PT069H.grib2 2026-04-28 21:00 338K
20260428T18Z_MSC_RDPS_WindU_IsbL-0275_RLatLon0.09_PT069H.grib2 2026-04-28 21:00 350K
20260428T18Z_MSC_RDPS_WindU_IsbL-0300_RLatLon0.09_PT069H.grib2 2026-04-28 21:00 348K
20260428T18Z_MSC_RDPS_WindU_IsbL-0350_RLatLon0.09_PT069H.grib2 2026-04-28 21:00 356K
20260428T18Z_MSC_RDPS_WindU_IsbL-0400_RLatLon0.09_PT069H.grib2 2026-04-28 21:00 359K
20260428T18Z_MSC_RDPS_WindU_IsbL-0450_RLatLon0.09_PT069H.grib2 2026-04-28 21:00 461K
20260428T18Z_MSC_RDPS_WindU_IsbL-0500_RLatLon0.09_PT069H.grib2 2026-04-28 21:00 462K
20260428T18Z_MSC_RDPS_WindU_IsbL-0550_RLatLon0.09_PT069H.grib2 2026-04-28 21:00 463K
20260428T18Z_MSC_RDPS_WindU_IsbL-0600_RLatLon0.09_PT069H.grib2 2026-04-28 21:00 472K
20260428T18Z_MSC_RDPS_WindU_IsbL-0650_RLatLon0.09_PT069H.grib2 2026-04-28 21:00 491K
20260428T18Z_MSC_RDPS_WindU_IsbL-0700_RLatLon0.09_PT069H.grib2 2026-04-28 21:00 511K
20260428T18Z_MSC_RDPS_WindU_IsbL-0750_RLatLon0.09_PT069H.grib2 2026-04-28 21:00 523K
20260428T18Z_MSC_RDPS_WindU_IsbL-0800_RLatLon0.09_PT069H.grib2 2026-04-28 21:00 565K
20260428T18Z_MSC_RDPS_WindU_IsbL-0850_RLatLon0.09_PT069H.grib2 2026-04-28 21:00 627K
20260428T18Z_MSC_RDPS_WindU_IsbL-0875_RLatLon0.09_PT069H.grib2 2026-04-28 21:00 645K
20260428T18Z_MSC_RDPS_WindU_IsbL-0900_RLatLon0.09_PT069H.grib2 2026-04-28 21:00 654K
20260428T18Z_MSC_RDPS_WindU_IsbL-0925_RLatLon0.09_PT069H.grib2 2026-04-28 21:00 655K
20260428T18Z_MSC_RDPS_WindU_IsbL-0950_RLatLon0.09_PT069H.grib2 2026-04-28 21:00 653K
20260428T18Z_MSC_RDPS_WindU_IsbL-0970_RLatLon0.09_PT069H.grib2 2026-04-28 21:00 650K
20260428T18Z_MSC_RDPS_WindU_IsbL-0985_RLatLon0.09_PT069H.grib2 2026-04-28 21:00 788K
20260428T18Z_MSC_RDPS_WindU_IsbL-1000_RLatLon0.09_PT069H.grib2 2026-04-28 21:00 787K
20260428T18Z_MSC_RDPS_WindU_IsbL-1015_RLatLon0.09_PT069H.grib2 2026-04-28 21:00 826K
20260428T18Z_MSC_RDPS_WindV_AGL-10m_RLatLon0.09_PT069H.grib2 2026-04-28 21:00 429K
20260428T18Z_MSC_RDPS_WindV_AGL-120m_RLatLon0.09_PT069H.grib2 2026-04-28 21:00 532K
20260428T18Z_MSC_RDPS_WindV_AGL-40m_RLatLon0.09_PT069H.grib2 2026-04-28 21:00 532K
20260428T18Z_MSC_RDPS_WindV_AGL-80m_RLatLon0.09_PT069H.grib2 2026-04-28 21:00 531K
20260428T18Z_MSC_RDPS_WindV_IsbL-0001_RLatLon0.09_PT069H.grib2 2026-04-28 21:00 245K
20260428T18Z_MSC_RDPS_WindV_IsbL-0005_RLatLon0.09_PT069H.grib2 2026-04-28 21:00 287K
20260428T18Z_MSC_RDPS_WindV_IsbL-0010_RLatLon0.09_PT069H.grib2 2026-04-28 21:00 300K
20260428T18Z_MSC_RDPS_WindV_IsbL-0020_RLatLon0.09_PT069H.grib2 2026-04-28 21:00 319K
20260428T18Z_MSC_RDPS_WindV_IsbL-0030_RLatLon0.09_PT069H.grib2 2026-04-28 21:00 316K
20260428T18Z_MSC_RDPS_WindV_IsbL-0050_RLatLon0.09_PT069H.grib2 2026-04-28 21:00 342K
20260428T18Z_MSC_RDPS_WindV_IsbL-0100_RLatLon0.09_PT069H.grib2 2026-04-28 21:00 422K
20260428T18Z_MSC_RDPS_WindV_IsbL-0150_RLatLon0.09_PT069H.grib2 2026-04-28 21:00 389K
20260428T18Z_MSC_RDPS_WindV_IsbL-0175_RLatLon0.09_PT069H.grib2 2026-04-28 21:00 412K
20260428T18Z_MSC_RDPS_WindV_IsbL-0200_RLatLon0.09_PT069H.grib2 2026-04-28 21:00 331K
20260428T18Z_MSC_RDPS_WindV_IsbL-0225_RLatLon0.09_PT069H.grib2 2026-04-28 21:00 336K
20260428T18Z_MSC_RDPS_WindV_IsbL-0250_RLatLon0.09_PT069H.grib2 2026-04-28 21:00 336K
20260428T18Z_MSC_RDPS_WindV_IsbL-0275_RLatLon0.09_PT069H.grib2 2026-04-28 21:00 349K
20260428T18Z_MSC_RDPS_WindV_IsbL-0300_RLatLon0.09_PT069H.grib2 2026-04-28 21:00 347K
20260428T18Z_MSC_RDPS_WindV_IsbL-0350_RLatLon0.09_PT069H.grib2 2026-04-28 21:00 454K
20260428T18Z_MSC_RDPS_WindV_IsbL-0400_RLatLon0.09_PT069H.grib2 2026-04-28 21:00 457K
20260428T18Z_MSC_RDPS_WindV_IsbL-0450_RLatLon0.09_PT069H.grib2 2026-04-28 21:00 457K
20260428T18Z_MSC_RDPS_WindV_IsbL-0500_RLatLon0.09_PT069H.grib2 2026-04-28 21:00 458K
20260428T18Z_MSC_RDPS_WindV_IsbL-0550_RLatLon0.09_PT069H.grib2 2026-04-28 21:00 458K
20260428T18Z_MSC_RDPS_WindV_IsbL-0600_RLatLon0.09_PT069H.grib2 2026-04-28 21:00 449K
20260428T18Z_MSC_RDPS_WindV_IsbL-0650_RLatLon0.09_PT069H.grib2 2026-04-28 21:00 470K
20260428T18Z_MSC_RDPS_WindV_IsbL-0700_RLatLon0.09_PT069H.grib2 2026-04-28 21:00 491K
20260428T18Z_MSC_RDPS_WindV_IsbL-0750_RLatLon0.09_PT069H.grib2 2026-04-28 21:00 516K
20260428T18Z_MSC_RDPS_WindV_IsbL-0800_RLatLon0.09_PT069H.grib2 2026-04-28 21:00 557K
20260428T18Z_MSC_RDPS_WindV_IsbL-0850_RLatLon0.09_PT069H.grib2 2026-04-28 21:00 614K
20260428T18Z_MSC_RDPS_WindV_IsbL-0875_RLatLon0.09_PT069H.grib2 2026-04-28 21:00 634K
20260428T18Z_MSC_RDPS_WindV_IsbL-0900_RLatLon0.09_PT069H.grib2 2026-04-28 21:00 785K
20260428T18Z_MSC_RDPS_WindV_IsbL-0925_RLatLon0.09_PT069H.grib2 2026-04-28 21:00 793K
20260428T18Z_MSC_RDPS_WindV_IsbL-0950_RLatLon0.09_PT069H.grib2 2026-04-28 21:00 789K
20260428T18Z_MSC_RDPS_WindV_IsbL-0970_RLatLon0.09_PT069H.grib2 2026-04-28 21:00 788K
20260428T18Z_MSC_RDPS_WindV_IsbL-0985_RLatLon0.09_PT069H.grib2 2026-04-28 21:00 784K
20260428T18Z_MSC_RDPS_WindV_IsbL-1000_RLatLon0.09_PT069H.grib2 2026-04-28 21:00 827K
20260428T18Z_MSC_RDPS_WindV_IsbL-1015_RLatLon0.09_PT069H.grib2 2026-04-28 21:00 820K